FW9546 Weather Reports


time (UTC)temp
C
wind
direction
speed
KPH
gust
KPH
rain 1hr
cm
rain 24hr
cm
rain mn
cm
humidity
%
barometer
mb
20260507001416 13 170 0.0 3.2 0.00 0.00 0.00 83 1028.0
20260507000914 13 329 0.0 3.2 0.00 0.00 0.00 83 1028.1
20260507000409 13 176 3.2 4.8 0.00 0.00 0.00 83 1027.9
20260506235905 13 359 0.0 3.2 0.00 0.00 0.00 83 1027.8
20260506235403 13 32 1.6 4.8 0.00 0.00 0.00 82 1028.0
20260506234858 13 71 3.2 4.8 0.00 0.00 0.00 82 1027.8
20260506234356 13 339 0.0 4.8 0.00 0.00 0.00 82 1028.0
20260506233853 13 163 3.2 3.2 0.00 0.00 0.00 81 1027.7
20260506233349 14 223 0.0 4.8 0.00 0.00 0.00 80 1027.6
20260506232846 14 197 3.2 4.8 0.00 0.00 0.00 80 1027.7
20260506232342 14 38 0.0 4.8 0.00 0.00 0.00 79 1027.9
20260506231838 15 143 1.6 8.0 0.00 0.00 0.00 79 1027.7
20260506231337 15 93 3.2 4.8 0.00 0.00 0.00 79 1027.8
20260506230834 15 51 4.8 8.0 0.00 0.00 0.00 79 1027.9
20260506230330 15 91 1.6 8.0 0.00 0.00 0.00 78 1027.9
20260506225827 15 102 3.2 9.7 0.00 0.00 0.00 76 1027.7
20260506225324 15 15 1.6 8.0 0.00 0.00 0.00 76 1027.6
20260506224821 16 128 1.6 8.0 0.00 0.00 0.00 75 1027.8
20260506224318 16 123 3.2 4.8 0.00 0.00 0.00 76 1027.7
20260506223814 16 118 4.8 8.0 0.00 0.00 0.00 77 1027.7
20260506223309 16 114 1.6 4.8 0.00 0.00 0.00 76 1027.9
20260506222807 15 125 4.8 4.8 0.00 0.00 0.00 77 1027.8
20260506222305 15 143 3.2 6.4 0.00 0.00 0.00 77 1027.8
20260506221800 15 197 4.8 6.4 0.00 0.00 0.00 78 1027.9
20260506221258 15 20 1.6 3.2 0.00 0.00 0.00 80 1027.8
20260506220755 15 47 3.2 6.4 0.00 0.00 0.00 79 1028.1
20260506220250 15 44 3.2 4.8 0.00 0.00 0.00 79 1028.0
20260506215747 15 145 3.2 4.8 0.00 0.00 0.00 80 1028.0
20260506215242 15 77 3.2 3.2 0.00 0.00 0.00 80 1027.8
20260506214739 15 125 3.2 4.8 0.00 0.00 0.00 80 1027.9
20260506214236 15 45 3.2 8.0 0.00 0.00 0.00 79 1027.9
20260506213735 15 84 4.8 4.8 0.00 0.00 0.00 78 1028.1
20260506213231 15 91 3.2 6.4 0.00 0.00 0.00 80 1028.0
20260506212729 15 91 4.8 6.4 0.00 0.00 0.00 82 1028.0
20260506212224 15 77 0.0 8.0 0.00 0.00 0.00 84 1028.0
20260506211720 15 39 4.8 6.4 0.00 0.00 0.00 84 1027.9
20260506211216 14 103 4.8 4.8 0.00 0.00 0.00 84 1027.9
20260506210713 14 68 3.2 4.8 0.00 0.00 0.00 85 1028.1
20260506210210 14 111 1.6 4.8 0.00 0.00 0.00 85 1027.9
20260506205707 13 280 0.0 3.2 0.00 0.00 0.00 85 1028.0
20260506205202 13 339 0.0 3.2 0.00 0.00 0.00 86 1028.0
20260506204700 13 7 1.6 4.8 0.00 0.00 0.00 86 1028.1
20260506204156 13 195 0.0 3.2 0.00 0.00 0.00 87 1028.1
20260506203655 13 166 3.2 4.8 0.00 0.00 0.00 87 1028.2
20260506203152 13 198 1.6 4.8 0.00 0.00 0.00 87 1028.2
20260506202650 13 269 1.6 3.2 0.00 0.00 0.00 88 1028.1
20260506202145 13 11 0.0 4.8 0.00 0.00 0.00 88 1027.9
20260506201642 13 3 3.2 3.2 0.00 0.00 0.00 87 1028.3
20260506201139 13 129 0.0 3.2 0.00 0.00 0.00 87 1027.9
20260506200635 13 18 0.0 4.8 0.00 0.00 0.00 87 1028.3
20260506200132 13 10 1.6 6.4 0.00 0.00 0.00 87 1028.2
20260506195629 13 151 1.6 4.8 0.00 0.00 0.00 88 1027.9
20260506195125 13 34 3.2 3.2 0.00 0.00 0.00 88 1028.0
20260506194623 13 345 0.0 4.8 0.00 0.00 0.00 88 1027.8
20260506194119 13 169 3.2 4.8 0.00 0.00 0.00 87 1027.7
20260506193617 13 48 1.6 3.2 0.00 0.00 0.00 89 1027.8
20260506193114 13 156 0.0 6.4 0.00 0.00 0.00 89 1027.7
20260506192611 13 5 0.0 4.8 0.00 0.00 0.00 90 1027.8
20260506192106 13 179 1.6 3.2 0.00 0.00 0.00 89 1027.7
20260506191603 13 342 1.6 3.2 0.00 0.00 0.00 91 1027.7
20260506191059 13 48 0.0 4.8 0.00 0.00 0.00 92 1027.8
20260506190557 13 134 0.0 3.2 0.00 0.00 0.00 92 1027.6
20260506190054 13 228 1.6 3.2 0.00 0.00 0.00 91 1027.8
20260506185551 13 305 3.2 3.2 0.00 0.00 0.00 92 1028.0
20260506185047 12 180 0.0 3.2 0.00 0.00 0.00 93 1027.7
20260506184545 12 10 1.6 4.8 0.00 0.00 0.00 92 1027.8
20260506184042 12 16 4.8 4.8 0.00 0.00 0.00 92 1027.6
20260506183538 12 94 1.6 4.8 0.00 0.00 0.00 92 1027.7
20260506183034 12 46 3.2 4.8 0.00 0.00 0.00 92 1027.6
20260506182532 12 107 1.6 3.2 0.00 0.00 0.00 92 1027.6
20260506182029 12 96 4.8 4.8 0.00 0.00 0.00 91 1027.7
20260506181527 12 226 1.6 3.2 0.00 0.00 0.00 91 1027.7
20260506181023 12 219 0.0 3.2 0.00 0.00 0.00 93 1027.4
20260506180520 12 250 0.0 3.2 0.00 0.00 0.00 91 1027.6
20260506180017 12 1 0.0 3.2 0.00 0.00 0.00 92 1027.5
20260506175513 12 285 3.2 4.8 0.00 0.00 0.00 93 1027.5
20260506175010 12 126 0.0 3.2 0.00 0.00 0.00 92 1027.2
20260506174508 12 89 0.0 3.2 0.00 0.00 0.00 93 1027.1
20260506174004 12 63 0.0 3.2 0.00 0.00 0.00 93 1027.3
20260506173502 12 326 0.0 4.8 0.00 0.00 0.00 92 1027.4
20260506172958 12 19 0.0 3.2 0.00 0.00 0.00 93 1027.3
20260506172456 12 22 0.0 3.2 0.00 0.00 0.00 93 1027.5
20260506171952 12 52 0.0 3.2 0.00 0.00 0.00 93 1027.6
20260506171449 12 229 0.0 3.2 0.00 0.00 0.00 93 1027.6
20260506170947 12 108 1.6 3.2 0.00 0.00 0.00 93 1027.4
20260506170444 12 330 0.0 3.2 0.00 0.00 0.00 93 1027.4
20260506165942 12 121 0.0 1.6 0.00 0.00 0.00 94 1027.4
20260506165440 12 236 1.6 3.2 0.00 0.00 0.00 93 1027.3
20260506164936 12 144 0.0 3.2 0.00 0.00 0.00 94 1027.3
20260506164433 12 101 1.6 3.2 0.00 0.00 0.00 94 1027.6
20260506163931 12 47 0.0 3.2 0.00 0.00 0.00 94 1027.3
20260506163425 12 115 0.0 3.2 0.00 0.00 0.00 94 1027.4
20260506162921 12 347 0.0 1.6 0.00 0.00 0.00 94 1027.2
20260506162419 12 258 1.6 3.2 0.00 0.00 0.00 94 1027.1
20260506161916 12 110 0.0 3.2 0.00 0.00 0.00 94 1027.1
20260506161414 12 150 0.0 3.2 0.00 0.00 0.00 95 1027.4
20260506160911 11 207 0.0 3.2 0.00 0.00 0.00 94 1027.2
20260506160408 11 227 0.0 1.6 0.00 0.00 0.00 94 1027.2
20260506155906 11 262 0.0 3.2 0.00 0.00 0.00 94 1026.9
20260506155403 11 153 0.0 3.2 0.00 0.00 0.00 94 1026.6
20260506153525 11 128 3.2 3.2 0.00 0.00 0.00 94 1027.2
20260506153022 11 107 1.6 4.8 0.00 0.00 0.00 93 1027.2
20260506152519 11 116 0.0 4.8 0.00 0.00 0.00 93 1027.2
20260506152018 11 42 0.0 4.8 0.00 0.00 0.00 93 1027.3
20260506151515 11 216 0.0 3.2 0.00 0.00 0.00 92 1027.2
20260506151012 11 104 1.6 3.2 0.00 0.00 0.00 93 1027.2
20260506150508 11 13 3.2 3.2 0.00 0.00 0.00 93 1027.2
20260506150005 11 358 0.0 3.2 0.00 0.00 0.00 93 1027.0
20260506145501 11 255 0.0 4.8 0.00 0.00 0.00 92 1026.9
20260506144959 11 326 0.0 3.2 0.00 0.00 0.00 93 1026.9
20260506144456 11 55 0.0 3.2 0.00 0.00 0.00 93 1027.1
20260506143954 11 113 1.6 3.2 0.00 0.00 0.00 94 1027.0
20260506143451 11 39 0.0 3.2 0.00 0.00 0.00 94 1027.0
20260506142949 11 91 3.2 4.8 0.00 0.00 0.00 94 1027.0
20260506142446 11 70 1.6 4.8 0.00 0.00 0.00 94 1026.9
20260506141944 11 33 0.0 3.2 0.00 0.00 0.00 94 1026.8
20260506141442 11 76 0.0 3.2 0.00 0.00 0.00 94 1026.8
20260506140940 11 109 1.6 3.2 0.00 0.00 0.00 94 1026.9
20260506140437 11 114 0.0 3.2 0.00 0.00 0.00 94 1026.7
20260506135933 11 85 3.2 4.8 0.00 0.00 0.00 94 1026.9
20260506135431 11 93 3.2 4.8 0.00 0.00 0.00 94 1026.9
20260506134927 11 97 1.6 3.2 0.00 0.00 0.00 95 1026.8
20260506134423 11 71 3.2 4.8 0.00 0.00 0.00 94 1027.0
20260506133920 11 60 1.6 3.2 0.00 0.00 0.00 94 1026.9
20260506133417 11 77 0.0 3.2 0.00 0.00 0.00 95 1026.6
20260506132914 11 142 1.6 3.2 0.00 0.00 0.00 95 1026.7
20260506132411 11 83 1.6 4.8 0.00 0.00 0.00 95 1026.7
20260506131909 11 322 0.0 3.2 0.00 0.00 0.00 95 1026.5
20260506131405 11 63 1.6 3.2 0.00 0.00 0.00 95 1026.5
20260506130902 11 66 1.6 8.0 0.00 0.00 0.00 95 1026.5
20260506130358 11 81 0.0 3.2 0.00 0.00 0.00 95 1026.2
20260506125857 11 266 0.0 3.2 0.00 0.00 0.00 95 1026.3
20260506125355 11 95 3.2 4.8 0.00 0.00 0.00 95 1026.1
20260506124853 11 96 1.6 4.8 0.00 0.00 0.00 95 1026.4
20260506124349 11 235 0.0 3.2 0.00 0.00 0.00 95 1026.3
20260506123847 11 171 0.0 3.2 0.00 0.00 0.00 94 1026.3
20260506123345 11 52 0.0 1.6 0.00 0.00 0.00 95 1026.3
20260506122842 11 218 0.0 3.2 0.00 0.00 0.00 95 1026.1
20260506122339 11 286 0.0 3.2 0.00 0.00 0.00 95 1026.3
20260506121837 11 324 0.0 1.6 0.00 0.00 0.00 95 1026.2
20260506121333 11 111 1.6 4.8 0.00 0.00 0.00 95 1026.2
20260506120831 11 135 0.0 3.2 0.00 0.00 0.00 96 1026.2
20260506120329 11 20 3.2 6.4 0.00 0.00 0.00 96 1025.9
20260506115826 11 113 3.2 4.8 0.00 0.00 0.00 97 1026.4
20260506115324 11 62 0.0 4.8 0.00 0.00 0.00 97 1026.2
20260506114822 11 76 0.0 3.2 0.00 0.00 0.00 97 1026.0
20260506114319 11 135 3.2 4.8 0.00 0.00 0.00 97 1026.1
20260506113818 11 76 3.2 4.8 0.00 0.00 0.00 97 1026.0
20260506113315 11 94 0.0 3.2 0.00 0.00 0.00 97 1025.9
20260506112811 11 131 1.6 3.2 0.00 0.00 0.00 97 1025.9
20260506112309 11 126 0.0 3.2 0.00 0.00 0.00 97 1025.7
20260506111806 11 165 1.6 3.2 0.00 0.00 0.00 98 1025.7
20260506111304 11 99 1.6 3.2 0.00 0.00 0.00 98 1025.8
20260506110801 11 101 1.6 3.2 0.00 0.00 0.00 98 1025.8
20260506110258 11 83 3.2 4.8 0.00 0.00 0.00 98 1025.8
20260506105754 11 102 1.6 4.8 0.00 0.00 0.00 98 1025.5
20260506105252 11 97 4.8 4.8 0.00 0.00 0.00 98 1025.4
20260506104749 11 116 3.2 4.8 0.00 0.00 0.00 98 1025.4
20260506104247 11 85 1.6 4.8 0.00 0.00 0.00 98 1025.5
20260506103744 11 110 3.2 4.8 0.00 0.00 0.00 98 1025.4
20260506103241 11 101 3.2 4.8 0.00 0.00 0.00 98 1025.5
20260506102739 11 81 3.2 4.8 0.00 0.00 0.00 98 1025.4
20260506102237 11 121 1.6 4.8 0.00 0.00 0.00 98 1025.4
20260506101733 11 62 3.2 4.8 0.00 0.00 0.00 98 1025.3
20260506101230 11 121 3.2 3.2 0.00 0.00 0.00 98 1025.1
20260506100728 10 141 1.6 4.8 0.00 0.00 0.00 98 1025.2
20260506100226 10 98 1.6 4.8 0.00 0.00 0.00 98 1025.0
20260506095724 10 131 1.6 3.2 0.00 0.00 0.00 98 1025.0
20260506095220 10 107 1.6 3.2 0.00 0.00 0.00 98 1025.1
20260506094717 10 162 1.6 4.8 0.00 0.00 0.00 98 1025.3
20260506094215 10 129 0.0 3.2 0.00 0.00 0.00 98 1025.1
20260506093714 10 156 1.6 3.2 0.00 0.00 0.00 98 1025.0
20260506093210 10 72 1.6 3.2 0.00 0.00 0.00 98 1025.3
20260506092708 10 127 1.6 3.2 0.00 0.00 0.00 98 1025.1
20260506092206 10 139 1.6 3.2 0.00 0.00 0.00 98 1025.0
20260506091703 10 114 0.0 1.6 0.00 0.00 0.00 98 1025.0
20260506091200 10 150 0.0 3.2 0.00 0.00 0.00 98 1024.9
20260506090658 10 130 0.0 3.2 0.00 0.00 0.00 98 1024.9
20260506090155 10 144 0.0 3.2 0.00 0.00 0.00 98 1024.6
20260506085652 10 100 0.0 3.2 0.00 0.00 0.00 98 1024.8
20260506085148 10 65 0.0 3.2 0.00 0.00 0.00 98 1024.8
20260506084644 10 176 0.0 1.6 0.00 0.00 0.00 98 1024.8
20260506084141 10 205 0.0 3.2 0.00 0.00 0.00 98 1024.5
20260506083638 10 276 0.0 1.6 0.00 0.00 0.00 98 1024.6
20260506083136 10 81 1.6 1.6 0.00 0.00 0.00 98 1024.5
20260506082632 10 180 0.0 3.2 0.00 0.00 0.00 98 1024.5
20260506082128 10 159 0.0 3.2 0.00 0.00 0.00 98 1024.3
20260506081626 10 142 1.6 3.2 0.00 0.00 0.00 98 1024.3
20260506081124 10 215 0.0 3.2 0.00 0.00 0.00 98 1024.3
20260506080621 10 237 0.0 3.2 0.00 0.00 0.00 98 1024.3
20260506080118 10 149 0.0 1.6 0.00 0.00 0.00 98 1024.3
20260506073102 10 219 1.6 4.8 0.00 0.00 0.00 97 1024.2
20260506072558 10 228 3.2 3.2 0.00 0.00 0.00 97 1024.2
20260506072056 11 266 0.0 1.6 0.00 0.00 0.00 97 1024.2
20260506071554 10 14 0.0 1.6 0.00 0.00 0.00 97 1024.3
20260506071051 10 132 0.0 1.6 0.00 0.00 0.00 97 1024.2
20260506070548 11 79 1.6 1.6 0.00 0.00 0.00 97 1024.2
20260506062022 11 180 0.0 3.2 0.00 0.00 0.00 97 1023.9
20260506061518 11 36 0.0 1.6 0.00 0.00 0.00 97 1023.9
20260506061016 11 315 0.0 1.6 0.00 0.00 0.00 97 1023.8
20260506060514 11 9 0.0 3.2 0.00 0.00 0.00 97 1023.9
20260506050943 11 149 0.0 3.2 0.00 0.00 0.00 96 1023.3
20260506050441 11 227 1.6 3.2 0.00 0.00 0.00 95 1023.3
20260506044931 12 242 1.6 3.2 0.00 0.00 0.00 95 1023.2
20260506044429 12 262 1.6 3.2 0.00 0.00 0.00 95 1023.3
20260506043926 12 189 1.6 4.8 0.00 0.00 0.00 94 1023.4
20260506043423 12 231 0.0 3.2 0.00 0.00 0.00 94 1023.3
20260506042921 12 279 0.0 3.2 0.00 0.00 0.00 94 1023.2
20260506042420 12 83 0.0 1.6 0.00 0.00 0.00 94 1023.2
20260506041918 12 336 0.0 3.2 0.00 0.00 0.00 94 1023.1
20260506041415 12 186 0.0 3.2 0.00 0.00 0.00 94 1023.1
20260506040912 12 290 0.0 1.6 0.00 0.00 0.00 93 1023.0
20260506040410 12 257 0.0 3.2 0.00 0.00 0.00 93 1022.9
20260506035905 12 272 1.6 3.2 0.00 0.00 0.00 92 1023.0
20260506035403 12 304 0.0 3.2 0.00 0.00 0.00 92 1023.1
20260506034900 13 302 0.0 3.2 0.00 0.00 0.00 92 1023.1
20260506034358 13 286 0.0 1.6 0.00 0.00 0.00 91 1023.0
20260506033854 13 246 0.0 3.2 0.00 0.00 0.00 91 1023.0
20260506033351 13 242 0.0 3.2 0.00 0.00 0.00 90 1023.0
20260506032848 13 237 0.0 3.2 0.00 0.00 0.00 89 1022.9
20260506032345 13 225 1.6 3.2 0.00 0.00 0.00 89 1022.7
20260506031842 13 229 0.0 3.2 0.00 0.00 0.00 88 1022.8
20260506031339 13 260 1.6 3.2 0.00 0.00 0.00 87 1022.6
20260506030837 14 233 0.0 3.2 0.00 0.00 0.00 86 1022.5
20260506030335 14 249 0.0 3.2 0.00 0.00 0.00 86 1022.5
20260506025831 14 278 3.2 4.8 0.00 0.00 0.00 85 1022.6
20260506025327 15 299 1.6 3.2 0.00 0.00 0.00 84 1022.6
20260506024825 15 192 0.0 3.2 0.00 0.00 0.00 83 1022.5
20260506024321 15 240 0.0 3.2 0.00 0.00 0.00 83 1022.6
20260506023817 15 293 0.0 3.2 0.00 0.00 0.00 83 1022.4
20260506023314 15 211 1.6 3.2 0.00 0.00 0.00 83 1022.6
20260506022811 15 24 0.0 1.6 0.00 0.00 0.00 82 1022.4
20260506022309 15 315 0.0 1.6 0.00 0.00 0.00 82 1022.4
20260506021807 15 243 0.0 1.6 0.00 0.00 0.00 82 1022.7
20260506021303 15 269 0.0 1.6 0.00 0.00 0.00 82 1022.5
20260506020800 15 202 0.0 1.6 0.00 0.00 0.00 81 1022.4
20260506020258 15 171 0.0 1.6 0.00 0.00 0.00 81 1022.6
20260506015756 15 173 0.0 3.2 0.00 0.00 0.00 80 1022.4
20260506015253 15 187 0.0 1.6 0.00 0.00 0.00 80 1022.6
20260506014749 15 86 0.0 1.6 0.00 0.00 0.00 79 1022.7
20260506014246 15 86 0.0 3.2 0.00 0.00 0.00 80 1022.5
20260506013743 15 174 0.0 3.2 0.00 0.00 0.00 79 1022.7
20260506013240 15 14 0.0 3.2 0.00 0.00 0.00 80 1022.3
20260506012736 15 30 3.2 3.2 0.00 0.00 0.00 79 1022.7
20260506012234 15 141 1.6 3.2 0.00 0.00 0.00 78 1022.2
20260506011731 15 105 0.0 3.2 0.00 0.00 0.00 78 1022.5
20260506011227 15 140 0.0 3.2 0.00 0.00 0.00 78 1022.6
20260506010726 15 133 0.0 3.2 0.00 0.00 0.00 79 1022.6
20260506010222 15 78 0.0 3.2 0.00 0.00 0.00 80 1022.6
20260506005720 15 125 1.6 3.2 0.00 0.00 0.00 79 1022.8
20260506005216 15 98 1.6 3.2 0.00 0.00 0.00 80 1022.8
20260506004712 15 120 3.2 3.2 0.00 0.00 0.00 79 1022.8
20260506004210 15 60 0.0 3.2 0.00 0.00 0.00 77 1022.7
20260506003706 15 103 1.6 4.8 0.00 0.00 0.00 78 1022.7
20260506003202 16 110 3.2 4.8 0.00 0.00 0.00 77 1022.6
20260506002658 16 149 3.2 3.2 0.00 0.00 0.00 77 1022.8
20260506002155 16 47 0.0 3.2 0.00 0.00 0.00 76 1022.8